IK3SVW-3 Weather Reports


time (UTC)temp
F
wind
direction
speed
knots
gust
knots
rain 1hr
in
rain 24hr
in
rain mn
in
humidity
%
barometer
mb
20260507181549 64 0 0.0 0.0 0.00 0.00 0.12 72 1012.0
20260507180447 65 0 0.0 0.0 0.00 0.00 0.12 70 1012.0
20260507173752 65 0 0.0 0.0 0.00 0.00 0.12 74 1012.0
20260507170445 65 0 0.0 0.0 0.00 0.00 0.12 74 1012.0
20260507165148 66 0 0.0 0.0 0.00 0.00 0.12 71 1012.0
20260507164052 67 0 0.0 0.0 0.00 0.00 0.12 71 1012.0
20260507160447 66 0 0.0 0.0 0.00 0.00 0.12 72 1011.0
20260507160033 66 0 0.0 0.0 0.00 0.00 0.12 72 1011.0
20260507155946 66 0 0.0 0.0 0.00 0.00 0.12 72 1011.0
20260507152646 64 0 0.0 0.0 0.00 0.00 0.12 76 1011.0
20260507151551 63 0 0.0 0.0 0.00 0.00 0.12 82 1011.0
20260507150445 63 0 0.0 0.0 0.00 0.00 0.12 86 1011.0
20260507144846 63 0 0.0 0.0 0.12 0.00 0.12 91 1011.0
20260507143745 62 0 0.0 0.0 0.12 0.00 0.12 94 1011.0
20260507143345 62 0 0.0 0.0 0.12 0.00 0.12 94 1010.0
20260507142245 61 0 0.0 0.0 0.12 0.00 0.12 91 1010.0
20260507140445 68 0 0.0 0.0 0.00 0.00 0.00 56 1011.0
20260507133747 73 0 0.0 0.0 0.00 0.00 0.00 39 1011.0
20260507132645 73 0 0.0 0.0 0.00 0.00 0.00 42 1011.0
20260507131757 72 0 0.0 0.0 0.00 0.00 0.00 44 1011.0
20260507131552 72 0 0.0 0.0 0.00 0.00 0.00 44 1011.0
20260507130448 71 0 0.0 0.0 0.00 0.00 0.00 46 1011.0
20260507124446 71 0 0.0 0.0 0.00 0.00 0.00 47 1011.0
20260507122245 71 0 0.0 0.0 0.00 0.00 0.00 46 1011.0
20260507121940 70 0 0.0 0.0 0.00 0.00 0.00 47 1010.0
20260507121846 70 0 0.0 0.0 0.00 0.00 0.00 47 1010.0
20260507120830 70 0 0.0 0.0 0.00 0.00 0.00 46 1010.0
20260507120746 70 0 0.0 0.0 0.00 0.00 0.00 46 1010.0
20260507120445 70 0 0.0 0.0 0.00 0.00 0.00 45 1011.0
20260507115149 70 0 0.0 0.0 0.00 0.00 0.00 44 1011.0
20260507110747 69 0 0.0 0.0 0.00 0.00 0.00 49 1011.0
20260507105950 69 0 0.0 0.0 0.00 0.00 0.00 49 1012.0
20260507104847 68 0 0.0 0.0 0.00 0.00 0.00 51 1012.0
20260507103746 68 0 0.0 0.0 0.00 0.00 0.00 50 1012.0
20260507102645 67 0 0.0 0.0 0.00 0.00 0.00 52 1012.0
20260507101550 66 0 0.0 0.0 0.00 0.00 0.00 52 1012.0
20260507100446 66 0 0.0 0.0 0.00 0.00 0.00 55 1012.0
20260507095953 67 0 0.0 0.0 0.00 0.00 0.00 56 1012.0
20260507094849 67 0 0.0 0.0 0.00 0.00 0.00 55 1012.0
20260507090445 66 0 0.0 0.0 0.00 0.00 0.00 59 1012.0
20260507085219 65 0 0.0 0.0 0.00 0.00 0.00 66 1012.0
20260507085147 65 0 0.0 0.0 0.00 0.00 0.00 66 1012.0
20260507081851 66 0 0.0 0.0 0.00 0.00 0.00 69 1012.0
20260507080445 66 0 0.0 0.0 0.00 0.00 0.00 69 1011.0
20260507075246 66 0 0.0 0.0 0.00 0.00 0.00 72 1011.0
20260507074850 66 0 0.0 0.0 0.00 0.00 0.00 74 1012.0
20260507073747 66 0 0.0 0.0 0.00 0.00 0.00 74 1012.0
20260507072646 64 0 0.0 0.0 0.00 0.00 0.00 77 1011.0
20260507071545 63 0 0.0 0.0 0.00 0.00 0.00 81 1011.0
20260507070445 62 0 0.0 0.0 0.00 0.00 0.00 82 1011.0
20260507063754 62 0 0.0 0.0 0.00 0.00 0.00 85 1011.0
20260507062651 62 0 0.0 0.0 0.00 0.00 0.00 86 1011.0
20260507061546 62 0 0.0 0.0 0.00 0.00 0.00 88 1011.0
20260507054849 60 0 0.0 0.0 0.00 0.00 0.00 93 1011.0
20260507053752 60 0 0.0 0.0 0.00 0.00 0.00 94 1011.0
20260507052645 59 0 0.0 0.0 0.00 0.00 0.00 94 1011.0
20260507051738 59 0 0.0 0.0 0.00 0.00 0.00 95 1011.0
20260507051627 59 0 0.0 0.0 0.00 0.00 0.00 95 1011.0
20260507050445 59 0 0.0 0.0 0.00 0.00 0.00 96 1011.0
20260507045246 58 0 0.0 0.0 0.00 0.00 0.00 97 1011.0
20260507044853 58 0 0.0 0.0 0.00 0.00 0.00 97 1010.0
20260507041555 58 0 0.0 0.0 0.00 0.00 0.00 97 1010.0
20260507040445 58 0 0.0 0.0 0.00 0.00 0.00 96 1010.0
20260507035949 58 0 0.0 0.0 0.00 0.00 0.00 96 1010.0
20260507033821 59 0 0.0 0.0 0.00 0.00 0.00 95 1010.0
20260507033745 59 0 0.0 0.0 0.00 0.00 0.00 95 1010.0
20260507030445 59 0 0.0 0.0 0.00 0.00 0.00 96 1010.0
20260507024848 58 0 0.0 0.0 0.00 0.00 0.00 96 1010.0
20260507022645 59 0 0.0 0.0 0.00 0.00 0.00 95 1010.0
20260507021545 59 0 0.0 0.0 0.00 0.00 0.00 95 1010.0
20260507020446 59 0 0.0 0.0 0.00 0.00 0.00 95 1010.0
20260507015952 59 0 0.0 0.0 0.00 0.00 0.00 95 1010.0
20260507012645 59 0 0.0 0.0 0.00 0.00 0.00 94 1010.0
20260507011545 59 0 0.0 0.0 0.00 0.00 0.00 94 1010.0
20260507010555 59 0 0.0 0.0 0.00 0.00 0.00 94 1010.0
20260507010446 59 0 0.0 0.0 0.00 0.00 0.00 94 1010.0
20260507004846 59 0 0.0 0.0 0.00 0.00 0.00 94 1010.0
20260507003825 59 0 0.0 0.0 0.00 0.00 0.00 94 1010.0
20260507003745 59 0 0.0 0.0 0.00 0.00 0.00 94 1010.0
20260507002645 59 0 0.0 0.0 0.00 0.00 0.00 94 1010.0
20260507000445 59 0 0.0 0.0 0.00 0.00 0.00 94 1010.0
20260506232745 59 0 0.0 0.0 0.00 0.00 0.00 94 1010.0
20260506232645 59 0 0.0 0.0 0.00 0.00 0.00 94 1010.0
20260506231545 59 0 0.0 0.0 0.00 0.00 0.00 94 1010.0
20260506230445 59 0 0.0 0.0 0.00 0.00 0.00 94 1010.0
20260506224848 60 0 0.0 0.0 0.00 0.00 0.00 94 1010.0
20260506222743 60 0 0.0 0.0 0.00 0.00 0.00 94 1010.0
20260506222645 60 0 0.0 0.0 0.00 0.00 0.00 94 1010.0
20260506220445 60 0 0.0 0.0 0.00 0.00 0.00 93 1010.0
20260506220022 60 0 0.0 0.0 0.00 0.00 0.00 93 1010.0
20260506215948 60 0 0.0 0.0 0.00 0.00 0.00 93 1010.0
20260506214951 60 0 0.0 0.0 0.00 0.00 0.00 92 1010.0
20260506214850 60 0 0.0 0.0 0.00 0.00 0.00 92 1010.0
20260506213748 60 0 0.0 0.0 0.00 0.00 0.00 92 1010.0
20260506211622 60 0 0.0 0.0 0.00 0.00 0.00 91 1010.0
20260506211545 60 0 0.0 0.0 0.00 0.00 0.00 91 1010.0
20260506205545 60 0 0.0 0.0 0.00 0.00 0.00 90 1010.0
20260506202247 61 0 0.0 0.0 0.00 0.00 0.00 90 1010.0
20260506201622 61 0 0.0 0.0 0.00 0.00 0.00 90 1009.0
20260506201545 61 0 0.0 0.0 0.00 0.00 0.00 90 1009.0
20260506195952 61 0 0.0 0.0 0.00 0.00 0.00 90 1009.0
20260506193857 61 0 0.0 0.0 0.00 0.00 0.00 89 1009.0
20260506193746 61 0 0.0 0.0 0.00 0.00 0.00 89 1009.0